BEIDOU-3S IGSO-1S (C31)

Last updated on Wed Aug 26 2026 00:04:16 GMT+0000 (Coordinated Universal Time)

1 40549U 15019A 26237.63513057 -.00000139 00000+0 00000+0 0 9990 2 40549 49.0620 294.6215 0039123 200.1792 162.5036 1.00294225 41770
UTC large
Height (km)
Speed (km/s)
/
Latitude / Longitude
Inclination (degrees)
Orbital Period (minutes)
Azimuth
Elevation
Range (km)
Doppler Factor

Next 0 passes for location: London (51.5072 / 0.1276)

No passes found over London.
BEIDOU-3S IGSO-1S (C31)